FW7166 Weather Reports


Display with metric or nautical units.
time (UTC)temp
F
wind
direction
speed
MPH
gust
MPH
rain 1hr
in
rain 24hr
in
rain mn
in
humidity
%
barometer
mb
20230207074745 32 199 2.0 12.0 0.00 0.00 0.00 89 1038.5
20230207074244 32 158 1.0 12.0 0.00 0.00 0.00 89 1038.7
20230207073742 32 177 2.0 12.0 0.00 0.00 0.00 89 1038.4
20230207073242 32 170 1.0 12.0 0.00 0.00 0.00 89 1039.2
20230207072225 32 189 0.0 12.0 0.00 0.00 0.00 89 1039.1
20230207071723 32 158 1.0 12.0 0.00 0.00 0.00 89 1039.1
20230207071222 32 199 1.0 12.0 0.00 0.00 0.00 89 1039.1
20230207070721 32 175 1.0 12.0 0.00 0.00 0.00 89 1039.0
20230207070220 32 173 0.0 12.0 0.00 0.00 0.00 89 1039.3
20230207065717 32 171 1.0 12.0 0.00 0.00 0.00 89 1039.0
20230207065215 32 163 0.0 12.0 0.00 0.00 0.00 89 1038.9
20230207064715 32 182 1.0 12.0 0.00 0.00 0.00 89 1039.0
20230207064214 32 173 3.0 12.0 0.00 0.00 0.00 89 1039.3
20230207063712 32 191 1.0 12.0 0.00 0.00 0.00 89 1039.0
20230207063210 32 188 2.0 12.0 0.00 0.00 0.00 89 1039.2
20230207062710 32 174 2.0 12.0 0.00 0.00 0.00 89 1039.3
20230207062209 32 181 4.0 12.0 0.00 0.00 0.00 89 1039.5
20230207061153 32 205 2.0 12.0 0.00 0.00 0.00 89 1039.4
20230207060652 32 182 3.0 12.0 0.00 0.00 0.00 89 1039.5
20230207060151 32 169 2.0 12.0 0.00 0.00 0.00 89 1039.4
20230207055649 32 174 0.0 12.0 0.00 0.00 0.00 89 1039.5
20230207054632 32 168 2.0 12.0 0.00 0.00 0.00 89 1039.4
20230207054131 32 201 1.0 12.0 0.00 0.00 0.00 89 1039.5
20230207053630 32 223 3.0 12.0 0.00 0.00 0.00 89 1039.1
20230207051543 32 220 1.0 12.0 0.00 0.00 0.00 90 1039.6
20230207051042 32 201 1.0 12.0 0.00 0.00 0.00 90 1040.2
20230207050541 32 205 2.0 12.0 0.00 0.00 0.00 90 1039.9
20230207045526 32 202 3.0 12.0 0.00 0.00 0.00 90 1039.9
20230207045024 32 191 2.0 12.0 0.00 0.00 0.00 90 1039.9
20230207044524 32 195 1.0 12.0 0.00 0.00 0.00 90 1040.2
20230207042949 32 184 2.0 12.0 0.00 0.00 0.00 90 1040.5
20230207042449 32 194 2.0 12.0 0.00 0.00 0.00 90 1040.3
20230207041948 32 198 3.0 12.0 0.00 0.00 0.00 90 1040.0
20230207041447 32 215 4.0 12.0 0.00 0.00 0.00 90 1040.1
20230207040947 32 186 1.0 12.0 0.00 0.00 0.00 90 1040.3
20230207040444 32 165 2.0 12.0 0.00 0.00 0.00 90 1039.7
20230207035943 32 224 4.0 12.0 0.00 0.00 0.00 90 1040.1
20230207035442 32 177 1.0 12.0 0.00 0.00 0.00 90 1040.2
20230207034940 32 169 1.0 12.0 0.00 0.00 0.00 90 1040.4
20230207034440 32 180 1.0 12.0 0.00 0.00 0.00 90 1040.4
20230207033940 32 211 2.0 12.0 0.00 0.00 0.00 90 1040.0
20230207033440 32 220 1.0 12.0 0.00 0.00 0.00 90 1040.2
20230207032423 32 174 2.0 12.0 0.00 0.00 0.00 90 1039.9
20230207031406 32 162 1.0 12.0 0.00 0.00 0.00 89 1040.2
20230207030906 32 192 2.0 12.0 0.00 0.00 0.00 89 1040.3
20230207030406 32 210 1.0 12.0 0.00 0.00 0.00 89 1040.2
20230207025905 32 241 1.0 12.0 0.00 0.00 0.00 89 1040.0
20230207025404 31 217 1.0 12.0 0.00 0.00 0.00 89 1040.3
20230207024904 31 202 1.0 12.0 0.00 0.00 0.00 89 1040.3
20230207024403 31 214 2.0 12.0 0.00 0.00 0.00 89 1040.2
20230207023345 31 166 2.0 12.0 0.00 0.00 0.00 89 1040.3
20230207022845 31 230 1.0 12.0 0.00 0.00 0.00 90 1040.5
20230207022345 31 203 0.0 12.0 0.00 0.00 0.00 90 1040.4
20230207021844 30 201 2.0 12.0 0.00 0.00 0.00 89 1040.5
20230207021342 30 202 0.0 12.0 0.00 0.00 0.00 89 1040.4
20230207020841 30 203 0.0 12.0 0.00 0.00 0.00 89 1040.4
20230207020340 30 201 1.0 12.0 0.00 0.00 0.00 89 1040.5
20230207015840 30 202 2.0 12.0 0.00 0.00 0.00 89 1040.5
20230207015339 30 203 0.0 12.0 0.00 0.00 0.00 89 1040.5
20230207014839 29 201 0.0 12.0 0.00 0.00 0.00 89 1040.8
20230207014338 29 202 1.0 12.0 0.00 0.00 0.00 89 1040.4
20230207013322 29 203 0.0 12.0 0.00 0.00 0.00 89 1040.5
20230207012821 29 202 1.0 12.0 0.00 0.00 0.00 89 1040.6
20230207012320 29 201 0.0 12.0 0.00 0.00 0.00 89 1040.5
20230207011818 29 201 0.0 12.0 0.00 0.00 0.00 89 1040.8
20230207011317 29 202 0.0 12.0 0.00 0.00 0.00 89 1040.7
20230207010816 29 195 0.0 12.0 0.00 0.00 0.00 89 1040.6
20230207010316 29 204 0.0 12.0 0.00 0.00 0.00 89 1040.6
20230207005816 28 214 0.0 12.0 0.00 0.00 0.00 89 1040.4
20230207005315 28 201 0.0 12.0 0.00 0.00 0.00 89 1040.4
20230207004815 28 187 0.0 12.0 0.00 0.00 0.00 89 1040.6
20230207004315 28 177 1.0 12.0 0.00 0.00 0.00 89 1040.1
20230207003815 28 149 0.0 12.0 0.00 0.00 0.00 89 1040.5
20230207003314 27 150 0.0 12.0 0.00 0.00 0.00 89 1040.5
20230207002257 27 204 0.0 12.0 0.00 0.00 0.00 89 1040.6
20230207001757 26 205 0.0 12.0 0.00 0.00 0.00 89 1041.0
20230207000742 26 205 0.0 12.0 0.00 0.00 0.00 89 1040.7
20230207000240 26 205 0.0 12.0 0.00 0.00 0.00 89 1040.8
20230206235738 26 205 0.0 12.0 0.00 0.00 0.00 88 1040.9
20230206234723 26 205 0.0 12.0 0.00 0.00 0.00 89 1040.6
20230206234222 26 205 0.0 12.0 0.00 0.00 0.00 89 1040.7
20230206233207 26 205 0.0 12.0 0.00 0.00 0.00 89 1040.9
20230206232706 26 205 0.0 12.0 0.00 0.00 0.00 89 1040.9
20230206232205 26 205 0.0 12.0 0.00 0.00 0.00 89 1040.9
20230206231704 26 205 0.0 12.0 0.00 0.00 0.00 89 1040.8
20230206230648 25 205 0.0 12.0 0.00 0.00 0.00 89 1041.1
20230206230146 25 158 0.0 12.0 0.00 0.00 0.00 89 1041.1
20230206224613 25 148 0.0 12.0 0.00 0.00 0.01 89 1041.1
20230206224113 25 148 0.0 12.0 0.00 0.00 0.01 88 1041.1
20230206223611 25 172 0.0 12.0 0.00 0.00 0.01 88 1041.0
20230206223110 24 173 0.0 12.0 0.00 0.00 0.01 89 1041.3
20230206222609 24 173 0.0 12.0 0.00 0.00 0.01 88 1041.5
20230206222108 24 210 0.0 12.0 0.00 0.00 0.01 89 1041.0
20230206221607 24 224 0.0 12.0 0.00 0.00 0.01 88 1041.1
20230206221106 24 221 0.0 12.0 0.00 0.00 0.01 88 1041.0
20230206220605 24 220 1.0 12.0 0.00 0.00 0.01 88 1041.1
20230206220103 23 200 1.0 12.0 0.00 0.00 0.01 88 1041.3
20230206215602 23 206 0.0 12.0 0.00 0.00 0.01 88 1041.2
20230206215102 23 216 0.0 12.0 0.00 0.00 0.01 88 1041.1
20230206214600 23 192 1.0 12.0 0.00 0.00 0.01 88 1041.5
20230206214059 23 168 0.0 12.0 0.00 0.00 0.01 88 1041.3
20230206213559 23 204 0.0 12.0 0.00 0.00 0.01 88 1041.6
20230206213058 23 208 0.0 12.0 0.00 0.00 0.01 88 1041.4
20230206212557 23 226 2.0 12.0 0.00 0.00 0.01 88 1041.4
20230206212057 23 236 3.0 12.0 0.00 0.00 0.01 88 1041.5
20230206211556 23 223 3.0 12.0 0.00 0.00 0.01 87 1041.5
20230206211055 23 217 3.0 12.0 0.00 0.00 0.01 87 1041.7
20230206210554 23 208 2.0 12.0 0.00 0.00 0.01 88 1041.6
20230206210054 23 220 3.0 12.0 0.00 0.00 0.01 88 1041.6
20230206205553 23 222 1.0 12.0 0.00 0.00 0.01 88 1041.6
20230206204536 22 218 0.0 12.0 0.00 0.00 0.01 88 1041.6
20230206204035 22 218 0.0 12.0 0.00 0.00 0.01 88 1041.5
20230206203535 21 212 1.0 12.0 0.00 0.00 0.01 87 1041.5
20230206203033 21 139 0.0 12.0 0.00 0.00 0.01 87 1041.8
20230206202532 21 139 0.0 12.0 0.00 0.00 0.01 87 1042.1
20230206202030 21 139 0.0 12.0 0.00 0.00 0.01 86 1041.8
20230206201529 21 139 0.0 12.0 0.00 0.00 0.01 86 1041.9
20230206201029 21 139 0.0 12.0 0.00 0.00 0.01 87 1042.0
20230206200529 21 139 0.0 12.0 0.00 0.00 0.01 87 1041.8
20230206200028 21 139 0.0 12.0 0.00 0.00 0.01 87 1041.9
20230206195528 21 139 0.0 12.0 0.00 0.00 0.01 87 1041.7
20230206195026 22 139 0.0 12.0 0.00 0.00 0.01 87 1041.8
20230206194525 22 139 0.0 12.0 0.00 0.00 0.01 87 1042.0
20230206194024 22 139 0.0 12.0 0.00 0.00 0.01 87 1042.0
20230206192452 22 139 0.0 12.0 0.00 0.00 0.01 86 1042.0
20230206191952 22 139 0.0 12.0 0.00 0.00 0.01 87 1041.6
20230206190933 22 139 0.0 12.0 0.00 0.00 0.01 87 1042.0
20230206190432 23 139 0.0 12.0 0.00 0.00 0.01 86 1042.0
20230206185931 23 139 0.0 12.0 0.00 0.00 0.01 86 1041.6
20230206185430 23 139 0.0 12.0 0.00 0.00 0.01 86 1041.8
20230206184929 23 139 0.0 12.0 0.00 0.00 0.01 87 1041.7
20230206183913 24 139 0.0 12.0 0.00 0.00 0.01 86 1041.6
20230206183412 24 147 0.0 12.0 0.00 0.00 0.01 87 1041.9
20230206182911 24 155 0.0 12.0 0.00 0.00 0.01 87 1041.8
20230206182410 24 146 0.0 12.0 0.00 0.00 0.01 87 1041.9
20230206181909 24 146 0.0 12.0 0.00 0.00 0.01 87 1041.7
20230206181409 24 146 0.0 12.0 0.00 0.00 0.01 87 1041.9
20230206180907 24 153 0.0 12.0 0.00 0.00 0.01 86 1042.0
20230206180406 25 152 0.0 12.0 0.00 0.00 0.01 86 1041.9
20230206175906 25 146 0.0 12.0 0.00 0.00 0.01 86 1041.8
20230206175405 25 149 0.0 12.0 0.00 0.00 0.01 86 1041.7
20230206174905 25 153 0.0 12.0 0.00 0.00 0.01 86 1041.7
20230206174404 25 157 0.0 12.0 0.00 0.00 0.01 86 1041.5
20230206173904 26 154 0.0 12.0 0.00 0.00 0.01 86 1041.5
20230206173404 26 150 0.0 12.0 0.00 0.00 0.01 86 1041.2
20230206172904 26 154 0.0 12.0 0.00 0.00 0.01 86 1041.3
20230206172403 26 152 0.0 12.0 0.00 0.00 0.01 86 1041.2
20230206171903 26 154 0.0 12.0 0.00 0.00 0.01 86 1041.5
20230206171403 26 151 0.0 12.0 0.00 0.00 0.01 86 1041.1
20230206170903 27 151 0.0 12.0 0.00 0.00 0.01 85 1041.3
20230206170402 27 150 0.0 12.0 0.00 0.00 0.01 85 1041.2
20230206165901 27 151 0.0 12.0 0.00 0.00 0.01 85 1041.2
20230206165400 27 150 0.0 12.0 0.00 0.00 0.01 85 1041.0
20230206164859 27 151 0.0 12.0 0.00 0.00 0.01 85 1041.4
20230206164357 28 147 0.0 12.0 0.00 0.00 0.01 85 1041.2
20230206163857 28 150 0.0 12.0 0.00 0.00 0.01 85 1041.3
20230206163357 28 150 0.0 12.0 0.00 0.00 0.01 85 1041.3
20230206162856 28 149 0.0 12.0 0.00 0.00 0.01 85 1041.5
20230206162354 28 145 0.0 12.0 0.00 0.00 0.01 84 1041.4
20230206161853 29 148 0.0 12.0 0.00 0.00 0.01 84 1041.2
20230206161352 29 146 0.0 12.0 0.00 0.00 0.01 84 1041.5
20230206160850 29 149 0.0 12.0 0.00 0.00 0.01 84 1041.2
20230206160349 30 149 0.0 12.0 0.00 0.00 0.01 85 1041.2
20230206155847 30 145 0.0 12.0 0.00 0.00 0.01 85 1041.0
20230206155345 30 145 0.0 12.0 0.00 0.00 0.01 85 1041.0
20230206154327 30 144 0.0 12.0 0.00 0.00 0.01 84 1041.1
20230206153826 30 143 0.0 12.0 0.00 0.00 0.01 84 1041.2
20230206153326 30 146 0.0 12.0 0.00 0.00 0.01 83 1041.0
20230206152309 31 145 0.0 12.0 0.00 0.00 0.01 83 1040.9
20230206151251 32 145 0.0 12.0 0.00 0.00 0.01 82 1040.9
20230206150233 32 152 0.0 12.0 0.00 0.00 0.01 82 1040.9
20230206145731 32 150 0.0 12.0 0.00 0.00 0.01 82 1040.9
20230206145230 33 150 0.0 12.0 0.00 0.00 0.01 82 1041.1
20230206144729 33 133 0.0 12.0 0.00 0.00 0.01 82 1040.8
20230206144228 33 131 0.0 12.0 0.00 0.00 0.01 82 1041.0
20230206143727 33 131 0.0 12.0 0.00 0.00 0.01 82 1040.9
20230206143227 33 130 0.0 12.0 0.00 0.00 0.01 82 1040.8
20230206142726 33 132 0.0 12.0 0.00 0.00 0.01 82 1040.8
20230206142226 33 133 0.0 12.0 0.00 0.00 0.01 82 1040.7
20230206141726 33 130 0.0 12.0 0.00 0.00 0.01 82 1040.8
20230206141224 33 130 0.0 12.0 0.00 0.00 0.01 82 1041.0
20230206140723 33 131 0.0 12.0 0.00 0.00 0.01 82 1040.9
20230206140222 33 132 0.0 12.0 0.00 0.00 0.01 82 1041.2
20230206135722 33 132 0.0 12.0 0.00 0.00 0.01 82 1041.2
20230206135221 33 133 1.0 12.0 0.00 0.00 0.01 82 1041.0
20230206134721 33 145 1.0 12.0 0.00 0.00 0.01 82 1041.2
20230206133703 33 204 0.0 12.0 0.00 0.00 0.01 82 1041.3
20230206133202 33 204 1.0 12.0 0.00 0.00 0.01 82 1041.4
20230206131629 33 204 0.0 12.0 0.00 0.00 0.01 82 1041.4
20230206131127 33 196 1.0 12.0 0.00 0.00 0.01 81 1041.2
20230206130625 33 128 0.0 12.0 0.00 0.00 0.01 81 1041.2
20230206125052 32 123 0.0 12.0 0.00 0.00 0.01 81 1041.3
20230206124551 32 117 0.0 12.0 0.00 0.00 0.01 81 1040.9
20230206123535 32 125 0.0 12.0 0.00 0.00 0.01 80 1041.2
20230206123034 32 147 1.0 12.0 0.00 0.00 0.01 80 1041.1
20230206122017 32 139 0.0 12.0 0.00 0.00 0.01 80 1041.0
20230206121516 32 137 0.0 12.0 0.00 0.00 0.01 79 1041.2
20230206121015 32 195 1.0 12.0 0.01 0.00 0.01 79 1041.2
20230206120514 32 187 2.0 12.0 0.01 0.00 0.01 79 1041.2
20230206120013 32 182 1.0 12.0 0.01 0.00 0.01 79 1041.4
20230206115512 32 182 1.0 12.0 0.01 0.00 0.01 79 1041.3
20230206115012 32 188 1.0 12.0 0.01 0.00 0.01 79 1041.4
20230206114510 32 178 1.0 12.0 0.01 0.00 0.01 78 1041.2
20230206113454 32 168 0.0 12.0 0.01 0.00 0.01 80 1041.1
20230206112954 31 164 0.0 12.0 0.01 0.00 0.01 80 1041.4
20230206112453 31 182 0.0 12.0 0.01 0.00 0.01 81 1041.5
20230206111953 31 175 1.0 12.0 0.01 0.00 0.01 81 1041.3
20230206111452 30 161 0.0 12.0 0.01 0.00 0.01 82 1041.4
20230206110950 30 187 1.0 12.0 0.01 0.00 0.01 82 1041.7
20230206110450 30 202 0.0 12.0 0.00 0.00 0.00 82 1041.7
20230206105949 30 179 0.0 12.0 0.00 0.00 0.00 83 1041.5
20230206105449 29 174 0.0 12.0 0.00 0.00 0.00 84 1041.3
20230206104949 28 177 0.0 12.0 0.00 0.00 0.00 83 1041.6
20230206104448 29 182 0.0 12.0 0.00 0.00 0.00 82 1041.5
20230206103432 30 185 0.0 12.0 0.00 0.00 0.00 83 1041.5
20230206102932 30 186 0.0 12.0 0.00 0.00 0.00 84 1041.6
20230206102431 29 186 0.0 12.0 0.00 0.00 0.00 85 1041.3
20230206101929 29 177 0.0 12.0 0.00 0.00 0.00 85 1041.5
20230206101428 28 163 0.0 12.0 0.00 0.00 0.00 85 1041.3
20230206100927 28 137 0.0 12.0 0.00 0.00 0.00 85 1041.1
20230206100425 28 118 0.0 12.0 0.00 0.00 0.00 86 1041.2
20230206095925 28 116 0.0 12.0 0.00 0.00 0.00 87 1041.2
20230206095424 27 119 0.0 12.0 0.00 0.00 0.00 86 1041.0
20230206094923 27 50 1.0 12.0 0.00 0.00 0.00 87 1041.3
20230206093906 26 50 0.0 12.0 0.00 0.00 0.00 88 1041.2
20230206093406 25 51 0.0 12.0 0.00 0.00 0.00 89 1041.4
20230206092905 25 53 0.0 12.0 0.00 0.00 0.00 89 1041.2
20230206091849 23 51 0.0 12.0 0.00 0.00 0.00 88 1041.1
20230206091346 23 50 0.0 12.0 0.00 0.00 0.00 88 1041.0
20230206090330 23 51 0.0 12.0 0.00 0.00 0.00 88 1041.3
20230206085828 22 61 0.0 12.0 0.00 0.00 0.00 88 1041.3
20230206085323 22 54 0.0 12.0 0.00 0.00 0.00 88 1041.4
20230206084822 22 52 0.0 12.0 0.00 0.00 0.00 88 1041.4
20230206083807 22 15 0.0 12.0 0.00 0.00 0.00 88 1041.5
20230206082750 22 338 0.0 12.0 0.00 0.00 0.00 88 1041.3
20230206082249 22 338 0.0 12.0 0.00 0.00 0.00 88 1041.2
20230206081748 22 338 0.0 12.0 0.00 0.00 0.00 88 1041.2
20230206081248 22 338 0.0 12.0 0.00 0.00 0.00 88 1041.0
20230206080747 22 338 0.0 12.0 0.00 0.00 0.00 88 1041.1
20230206080246 22 338 0.0 12.0 0.00 0.00 0.00 88 1041.3
20230206075745 21 338 0.0 12.0 0.00 0.00 0.00 88 1041.3
20230206075244 21 338 0.0 12.0 0.00 0.00 0.00 88 1041.1